sat.trackr.live / text

‹ back to catalog

PRAETORIAN SDA_616

NORAD 65579 · 2025-203Q

PAYLOAD ACTIVE UNKNOWN

§ Identity

Operator
Country
US
Launch date
2025-09-10
Launch site
AFWTR
Launch vehicle
Mass (kg)
RCS (m²)

Purposes: military

External: N2YO · Heavens-Above · Gunter

§ Orbital elements

Epoch: 2026-05-25T03:02:03.822432Z

Period
104.10 min
Inclination
81.3081°
Eccentricity
0.0004603
Mean motion
13.83264357 rev/d
Perigee alt
949.0 km
Apogee alt
955.7 km
Semi-major
7,330.5 km
B*
1.8466e-4
RAAN
32.3915°
Arg perigee
266.4971°
Mean anomaly
93.5658°
Rev number
3,549

§ Raw data

PRAETORIAN SDA_6161 65579U 25203Q   26145.12643313  .00000214  00000+0  18466-3 0  99992 65579  81.3081  32.3915 0004603 266.4971  93.5658 13.83264357 35495

JSON: /api/v1/satellites/65579 · /tle

For live sub-satellite position, see the globe view (requires WebGL).

§ Visibility from observer

Set your observer location to see the next 7 days of passes ≥ 10°. The values pass through the URL so the page stays shareable.

No JS? Fill the form by hand. The geolocation button needs JavaScript.